Wind_Speed
15 15 14 14 14 14 14 14 14 14 14 14 13 12 11 11 11 11 12 11 10 10 10 10 10 10 10 11 11 12 12 12 13 13 13 12 12 13 14 14 15 15 15
16 16 15 15 16 16 15 15 15 15 15 14 13 12 11 11 11 11 11 11 10 10 11 10 10 11 10 11 10 11 12 12 12 12 13 13 13 13 14 15 15 16 16
16 16 16 16 16 16 16 15 16 15 15 13 12 11 11 11 11 10 10 10 10 10 10 10 10 11 11 10 10 10 11 12 12 12 13 13 13 13 14 15 16 16 17
17 16 16 16 16 16 16 16 16 15 14 13 11 11 10 10 10 9 9 10 10 10 10 10 10 11 11 10 10 10 10 11 12 12 13 14 14 14 14 15 16 17 17
16 15 15 15 16 16 16 16 16 15 14 12 11 10 9 9 8 9 9 9 9 10 9 10 10 11 11 10 10 10 10 11 12 12 13 14 14 15 15 16 16 16 16
16 15 15 15 16 16 16 16 15 14 13 11 10 10 9 8 8 8 8 8 9 10 10 10 10 11 11 10 10 10 11 11 12 12 13 13 14 14 14 15 15 16 16
15 15 15 16 16 16 16 15 15 14 13 11 10 10 9 8 7 7 7 8 9 9 9 9 10 10 10 10 10 11 11 11 11 12 12 12 13 13 13 14 15 16 15
15 15 15 16 16 16 16 15 15 15 14 12 11 10 9 8 7 7 8 8 8 8 7 8 9 9 10 10 11 11 11 11 11 12 12 13 12 12 13 13 14 14 14
14 14 15 15 16 15 15 16 15 15 14 13 12 10 10 8 8 7 7 7 7 7 7 7 8 9 9 10 10 11 11 11 11 12 12 13 12 12 12 13 13 13 14
15 15 14 14 15 15 15 15 15 14 11 11 11 10 10 8 8 7 7 7 6 6 7 7 7 8 8 9 9 10 10 10 11 12 12 12 11 11 12 12 13 13 14
15 16 15 15 14 14 13 13 13 13 11 10 10 9 9 9 9 8 8 8 7 6 6 6 6 7 7 8 9 9 9 10 11 11 11 12 12 11 11 11 12 14 14
15 15 15 15 14 14 14 13 13 12 12 11 11 10 10 10 10 9 9 9 8 8 8 7 6 6 6 7 8 8 8 8 9 10 11 10 11 11 10 11 12 13 14
16 15 16 16 15 15 15 15 14 13 13 11 11 11 11 11 11 10 9 9 9 9 9 8 7 7 7 7 7 8 8 7 7 8 9 11 11 11 11 11 11 12 12
17 16 15 15 16 16 16 15 15 14 13 11 11 11 11 12 11 10 10 10 10 10 10 9 8 8 8 8 8 7 7 7 7 8 9 10 10 10 10 10 11 12 12
19 17 16 16 17 17 17 16 14 14 13 12 12 12 12 12 12 11 11 10 11 11 10 9 9 9 9 8 8 8 8 7 8 9 9 9 10 11 11 11 12 12 13
19 18 18 18 18 17 16 16 14 14 13 12 12 12 12 12 12 13 12 12 11 11 11 11 10 10 10 10 10 10 10 9 9 10 10 11 11 12 12 13 14 14 15
20 20 21 20 19 17 16 16 15 14 14 14 14 13 13 13 13 13 14 14 13 12 12 12 12 12 11 12 12 12 12 12 12 12 12 12 13 14 14 15 16 16 16
22 21 21 20 19 18 17 16 15 15 15 15 15 15 15 15 15 15 15 15 15 15 14 14 14 14 13 13 13 13 14 14 14 14 14 15 15 15 15 16 16 16 17
23 22 22 21 20 19 17 17 17 16 16 16 15 16 16 17 17 17 17 17 16 16 16 16 16 16 15 15 16 15 15 15 15 15 16 16 16 17 17 17 16 16 17
22 22 21 20 20 20 18 18 18 17 17 17 17 17 17 18 18 18 18 18 18 17 18 17 17 17 17 17 17 17 17 17 17 17 17 17 18 18 18 18 17 17 18
22 22 22 21 20 19 18 18 18 18 18 18 18 18 18 18 19 19 19 19 19 19 19 19 18 18 18 18 18 18 18 18 18 18 18 19 19 19 18 18 18 18 19
22 22 22 21 21 19 19 19 19 19 19 18 18 19 18 18 19 19 19 20 20 20 19 19 19 19 19 18 18 18 19 19 19 20 20 20 19 19 18 18 19 19 20
22 21 20 20 20 19 19 19 19 19 19 19 19 18 19 19 19 19 19 19 19 20 20 20 20 20 20 20 20 20 20 21 21 21 21 20 19 19 19 19 20 20 20
24 22 21 20 20 20 20 20 21 20 20 19 19 19 18 18 18 19 19 19 19 19 19 19 20 20 20 20 20 20 21 21 21 21 20 20 20 21 21 20 20 21 21
23 22 22 22 21 21 21 21 21 21 21 20 20 20 19 18 19 19 20 20 20 20 19 19 19 20 20 20 20 21 22 22 22 21 21 21 21 21 21 21 21 22 22
23 23 23 23 23 22 22 22 21 21 21 21 20 21 21 20 20 20 21 21 21 21 21 21 20 20 20 20 21 21 21 21 21 22 22 22 21 21 22 22 22 23 23
Wind_Direction
296 297 300 301 303 305 308 309 308 308 308 304 295 292 291 290 290 288 280 276 279 281 278 270 265 266 268 262 260 257 254 253 252 251 251 249 246 243 242 243 242 243 244
292 294 295 296 300 303 304 305 304 305 305 303 297 290 287 286 289 287 282 277 279 282 279 274 266 265 266 265 260 256 253 253 252 252 253 252 247 246 247 245 244 245 246
288 290 292 294 296 298 300 303 303 303 302 301 296 291 292 290 288 285 281 278 279 283 282 273 265 266 267 266 258 255 252 250 251 253 252 250 251 250 247 246 247 249 248
285 286 289 292 294 295 296 299 299 300 299 296 294 290 292 292 288 282 279 277 277 279 278 272 267 264 268 266 262 257 255 253 253 254 253 253 251 251 249 248 249 249 248
282 286 288 292 293 294 295 295 295 296 296 292 291 288 287 287 284 279 276 275 276 279 277 272 263 259 263 265 263 259 256 257 258 257 256 257 255 254 254 254 252 249 249
276 280 288 291 292 295 295 294 292 291 289 286 284 284 284 281 284 284 278 278 281 284 280 273 263 258 257 261 263 262 260 261 260 259 260 262 259 257 258 257 255 254 253
275 281 286 290 291 295 294 291 290 288 287 281 277 276 276 276 277 283 281 280 283 283 280 273 266 260 254 259 263 265 267 263 258 257 257 261 261 261 264 262 258 256 255
274 281 287 289 291 295 292 290 289 287 285 281 276 268 267 273 279 284 284 279 284 284 283 275 268 265 259 260 263 265 268 262 260 257 258 260 261 262 265 263 258 255 255
273 277 281 288 293 295 294 290 288 286 283 275 273 263 261 270 275 281 284 279 276 283 283 280 276 272 265 264 268 266 266 264 261 260 260 260 262 262 264 264 259 255 255
279 279 278 283 288 292 293 294 287 281 280 271 266 264 257 262 265 272 278 281 278 285 288 280 279 277 269 267 269 269 267 266 264 262 260 263 265 264 263 264 260 255 257
282 284 283 286 289 292 293 294 291 288 280 274 268 269 265 266 268 271 273 277 278 284 289 289 291 282 276 269 265 266 268 266 263 262 264 266 266 269 270 268 262 259 260
275 281 280 288 290 291 295 294 291 290 286 276 267 264 263 263 266 268 271 275 277 279 283 284 287 286 283 279 271 269 272 272 262 263 265 269 270 266 267 266 264 261 261
270 276 281 285 288 290 293 293 289 288 287 278 265 261 261 262 264 267 268 272 275 274 277 279 275 278 279 279 280 280 275 273 273 268 264 267 270 267 268 269 267 264 267
271 276 282 285 287 289 292 291 287 286 280 271 265 261 261 261 264 263 267 271 273 272 273 277 274 272 273 275 277 279 276 272 272 273 272 270 270 270 272 272 271 271 271
271 274 279 282 287 288 289 287 287 284 275 265 260 260 261 263 263 265 268 269 272 270 270 273 277 273 271 271 270 271 275 276 272 269 273 274 274 275 277 277 277 278 278
269 273 278 284 287 287 287 285 280 276 271 263 259 259 260 262 264 265 267 270 272 271 269 271 276 273 270 268 268 271 272 271 270 271 274 276 274 274 276 277 278 282 283
271 273 274 278 280 281 282 282 276 270 266 262 259 260 260 261 265 267 269 270 271 270 268 267 269 271 271 268 270 269 269 268 271 274 276 277 277 276 279 279 279 281 283
269 271 273 275 275 276 276 275 273 270 268 264 260 260 261 263 263 265 266 268 268 267 269 268 267 269 270 269 269 267 265 266 270 274 275 278 280 279 280 282 282 281 282
269 269 269 271 272 272 270 271 272 269 267 265 263 261 261 262 261 262 263 263 263 266 268 269 269 268 267 268 267 266 266 267 270 274 276 278 280 280 282 282 282 283 284
266 269 271 270 268 265 265 267 267 268 269 268 266 264 262 262 262 260 261 261 262 265 267 268 269 268 268 266 266 265 267 268 270 274 276 276 278 281 283 283 281 282 284
266 267 269 269 266 262 264 265 265 266 269 269 267 265 263 261 261 260 260 261 262 264 265 265 267 268 268 268 269 267 268 267 269 273 275 276 279 280 281 281 281 283 284
264 264 263 265 263 261 261 261 261 263 264 265 265 266 264 261 261 262 262 261 262 262 262 263 264 268 269 269 268 267 267 269 270 272 274 276 277 277 278 280 282 284 286
263 261 260 261 259 259 260 260 260 260 261 261 263 265 262 262 263 262 262 261 262 262 262 262 263 266 269 267 266 266 267 268 270 273 276 277 277 277 280 282 284 286 288
261 261 260 261 260 261 263 263 261 260 259 259 261 262 262 261 262 263 264 264 263 264 265 263 263 267 269 267 267 270 271 271 273 275 276 277 278 279 280 282 285 287 287
261 261 261 261 262 264 263 263 259 257 257 258 260 261 260 260 261 264 265 265 265 264 264 264 265 268 269 269 269 271 272 274 274 275 276 278 278 278 279 281 283 285 287
261 262 263 262 263 264 262 260 257 256 257 258 260 261 260 260 262 263 264 264 264 264 262 262 264 265 266 268 270 272 274 274 274 275 276 277 279 279 279 281 283 285 285
Height
5871 5871 5870 5869 5868 5866 5864 5863 5861 5859 5858 5855 5853 5852 5852 5851 5850 5849 5848 5848 5848 5848 5847 5847 5847 5847 5847 5846 5846 5847 5847 5848 5848 5849 5849 5850 5850 5851 5851 5852 5853 5854 5854
5868 5867 5867 5866 5865 5863 5861 5860 5858 5856 5854 5852 5850 5849 5849 5848 5847 5846 5845 5845 5845 5844 5844 5844 5843 5843 5843 5843 5843 5843 5844 5844 5845 5845 5845 5846 5847 5847 5848 5849 5850 5850 5851
5864 5863 5863 5862 5861 5859 5858 5856 5854 5852 5851 5849 5847 5846 5845 5844 5843 5843 5842 5842 5842 5841 5840 5840 5840 5840 5840 5840 5840 5840 5840 5841 5841 5842 5842 5842 5843 5843 5844 5845 5845 5846 5846
5859 5859 5859 5858 5857 5856 5854 5852 5851 5849 5847 5845 5844 5843 5842 5841 5841 5840 5840 5839 5839 5838 5838 5837 5837 5837 5837 5837 5837 5837 5837 5837 5838 5838 5838 5839 5839 5840 5841 5841 5841 5842 5842
5855 5855 5855 5854 5853 5852 5850 5848 5847 5845 5843 5842 5841 5840 5839 5839 5838 5838 5837 5836 5836 5835 5835 5834 5834 5834 5834 5834 5834 5834 5834 5834 5834 5835 5835 5835 5835 5836 5836 5837 5837 5838 5838
5851 5851 5851 5850 5849 5847 5846 5845 5843 5841 5839 5838 5837 5837 5836 5836 5836 5835 5834 5834 5833 5832 5832 5831 5831 5831 5831 5831 5831 5831 5831 5831 5831 5831 5831 5831 5831 5832 5832 5833 5833 5833 5834
5848 5847 5847 5846 5844 5843 5842 5841 5839 5838 5836 5835 5834 5834 5834 5833 5833 5833 5832 5832 5831 5830 5829 5828 5828 5828 5828 5828 5828 5828 5828 5827 5827 5827 5828 5828 5828 5828 5828 5829 5829 5829 5830
5843 5842 5842 5842 5840 5839 5838 5837 5836 5835 5833 5832 5831 5831 5831 5831 5831 5830 5830 5829 5828 5827 5826 5826 5825 5825 5825 5825 5825 5825 5825 5824 5824 5824 5824 5824 5824 5824 5824 5825 5825 5826 5826
5838 5838 5838 5838 5836 5835 5835 5833 5832 5830 5829 5828 5828 5827 5828 5828 5828 5828 5827 5827 5826 5825 5824 5824 5823 5823 5823 5823 5822 5822 5822 5821 5821 5821 5821 5821 5821 5821 5821 5821 5821 5822 5822
5835 5834 5833 5833 5832 5831 5831 5829 5827 5825 5824 5823 5824 5824 5824 5825 5825 5825 5825 5825 5824 5823 5822 5822 5821 5821 5820 5820 5819 5819 5819 5818 5818 5818 5818 5818 5817 5817 5817 5817 5817 5818 5818
5831 5830 5829 5829 5828 5827 5826 5825 5823 5821 5821 5821 5821 5821 5822 5822 5823 5822 5823 5822 5822 5821 5821 5820 5819 5818 5818 5817 5817 5816 5816 5816 5815 5815 5815 5814 5814 5814 5814 5814 5814 5814 5815
5827 5826 5826 5825 5824 5823 5822 5821 5821 5819 5819 5818 5819 5819 5819 5820 5820 5820 5820 5820 5820 5819 5818 5818 5817 5816 5815 5815 5814 5814 5813 5813 5812 5812 5812 5812 5812 5811 5811 5811 5811 5811 5810
5823 5823 5822 5821 5820 5819 5818 5817 5817 5816 5815 5815 5815 5816 5817 5817 5817 5817 5817 5817 5817 5816 5816 5815 5815 5814 5813 5813 5812 5812 5811 5811 5810 5810 5810 5810 5809 5809 5808 5808 5808 5808 5808
5817 5817 5817 5816 5816 5815 5814 5813 5813 5812 5811 5811 5812 5812 5813 5814 5814 5814 5814 5814 5814 5814 5813 5813 5812 5811 5811 5810 5810 5810 5809 5808 5808 5808 5807 5807 5806 5806 5806 5806 5805 5805 5804
5812 5812 5812 5812 5811 5810 5809 5809 5808 5808 5807 5807 5809 5809 5810 5811 5811 5811 5811 5811 5811 5810 5810 5809 5809 5809 5808 5808 5807 5807 5806 5806 5805 5805 5805 5804 5804 5803 5803 5802 5802 5801 5800
5806 5806 5806 5806 5806 5805 5805 5804 5804 5803 5803 5804 5805 5806 5806 5807 5807 5807 5807 5807 5807 5807 5806 5806 5806 5805 5805 5805 5804 5804 5803 5803 5803 5803 5802 5802 5801 5800 5800 5799 5798 5797 5797
5800 5800 5800 5800 5800 5800 5799 5799 5799 5799 5799 5799 5800 5802 5802 5803 5803 5803 5803 5804 5803 5803 5803 5803 5802 5802 5802 5801 5801 5801 5800 5800 5800 5799 5799 5798 5798 5796 5796 5795 5794 5793 5792
5793 5793 5794 5794 5794 5794 5794 5794 5794 5795 5795 5795 5796 5797 5798 5798 5798 5799 5799 5799 5799 5799 5799 5799 5798 5798 5798 5797 5797 5797 5797 5796 5796 5795 5795 5794 5793 5792 5791 5790 5789 5788 5788
5787 5787 5787 5787 5787 5788 5788 5789 5790 5790 5790 5791 5791 5792 5793 5793 5793 5794 5794 5794 5794 5794 5794 5794 5794 5794 5794 5793 5793 5793 5792 5792 5791 5791 5790 5789 5789 5788 5786 5786 5785 5784 5783
5781 5781 5781 5781 5781 5782 5783 5783 5784 5785 5785 5785 5786 5786 5787 5788 5788 5788 5789 5789 5789 5789 5789 5789 5789 5789 5788 5788 5788 5788 5787 5787 5787 5786 5785 5784 5784 5783 5782 5781 5780 5779 5778
5774 5775 5775 5775 5775 5775 5776 5777 5778 5779 5779 5780 5780 5781 5781 5782 5782 5783 5783 5783 5783 5783 5784 5784 5783 5783 5783 5783 5783 5782 5782 5782 5781 5781 5780 5779 5778 5777 5776 5776 5775 5773 5772
5767 5768 5768 5768 5769 5769 5770 5771 5772 5773 5773 5774 5774 5775 5775 5775 5776 5776 5776 5777 5777 5777 5778 5778 5777 5777 5777 5777 5777 5777 5777 5776 5776 5775 5775 5774 5773 5772 5771 5770 5769 5768 5766
5760 5760 5761 5762 5762 5763 5764 5765 5765 5766 5767 5767 5768 5769 5769 5769 5769 5770 5770 5770 5770 5770 5771 5771 5771 5771 5771 5771 5771 5770 5770 5770 5770 5769 5768 5767 5767 5766 5765 5764 5763 5762 5760
5754 5754 5755 5755 5756 5757 5757 5758 5759 5759 5760 5761 5762 5762 5762 5763 5763 5764 5764 5764 5764 5765 5765 5765 5765 5765 5764 5764 5764 5764 5763 5763 5763 5763 5762 5761 5760 5759 5759 5758 5756 5755 5753
5746 5747 5748 5749 5749 5750 5750 5751 5752 5752 5753 5754 5755 5756 5756 5756 5757 5758 5758 5758 5758 5758 5759 5759 5759 5758 5758 5758 5758 5757 5757 5757 5756 5756 5755 5754 5753 5753 5752 5751 5749 5748 5747
5738 5739 5740 5741 5741 5742 5743 5743 5744 5746 5747 5747 5748 5749 5750 5750 5751 5751 5751 5751 5752 5752 5752 5752 5752 5752 5752 5752 5751 5751 5750 5750 5749 5749 5748 5747 5746 5745 5744 5743 5742 5741 5740